Location: Edinburgh
(55.9500°N, 3.1600°W)
Time: 02:42:03
(UTC+01:00)

Envisat - Pass Details

Date: 10 October 2017
Orbit: 764 x 766 km, 98.2° (Epoch: 16 October)

Event Time Altitude Azimuth Distance (km) Brightness Sun altitude
Exits shadow 21:07:03 20° 185° (S) 1,727 4.6 -23.2°
Maximum altitude 21:10:31 57° 259° (W) 902 3.5 -23.6°
Drops below altitude 10° 21:15:33 10° 338° (NNW) 2,316 6.1 -24.3°
Sets 21:17:55 0° 343° (NNW) 3,247 6.9 -24.6°
